Weather History for Dillon, MT

Change the Weather History Date:

Monday, February 10, 2014

  Actual Average Record
Temperature  
Mean Temperature 18 °F 25 °F  
Max Temperature 35 °F 36 °F 63 °F (1951)
Min Temperature 0 °F 14 °F -28 °F (1981)
Degree Days  
Heating Degree Days 47    
Month to date heating degree days 620  
Since 1 July heating degree days 5053  
Cooling Degree Days 0    
Month to date cooling degree days 0  
Year to date cooling degree days 0  
Moisture  
Dew Point 16 °F    
Average Humidity 72    
Maximum Humidity 88    
Minimum Humidity 56    
Precipitation  
Precipitation 0.00 in 0.01 in 0.09 in (1986)
Month to date precipitation 0.13 0.07  
Year to date precipitation 0.15 0.35  
Snow  
Snow 0.00 in - - ()
Snow Depth 5.00 in    
Sea Level Pressure  
Sea Level Pressure 30.19 in    
Wind  
Wind Speed 13 mph (SSW)    
Max Wind Speed 22 mph    
Max Gust Speed 25 mph    
Visibility 10 miles    
Events      
T = Trace of Precipitation, MM = Missing Value Source: NWS Daily Summary

Daily Weather History Graph

Daily Weather History Graph

Search for Another Location

Airport:

Trip Planner

Search our weather history database for the weather conditions in past years. The results will help you decide how hot, cold, wet, or windy it might be!

Date:

Astronomy

Feb. 10, 2014 Rise Set
Actual Time 7:38 AM MST 5:50 PM MST
Civil Twilight 7:08 AM MST 6:21 PM MST
Nautical Twilight 6:33 AM MST 6:56 PM MST
Astronomical Twilight 5:59 AM MST 7:30 PM MST
Moon 2:18 PM MST (2/10) 4:39 AM MST (2/10)
Length of Visible Light 11h 13m
Length of Day
10h 11m
Waxing Gibbous, 85% of the Moon is Illuminated
Feb 10
Waxing Gibbous
Feb 14
Full
Feb 22
Last Quarter
Mar 1
New
Mar 8
First Quarter

Hourly Weather History & Observations

Time (MST) Temp. Windchill Dew Point Humidity Pressure Visibility Wind Dir Wind Speed Gust Speed Precip Events Conditions
12:53 AM 1.0 °F - -2.9 °F 83% 30.24 in 10.0 mi Calm Calm - N/A   Clear
1:53 AM 5.0 °F -4.1 °F -0.0 °F 80% 30.24 in 10.0 mi NNW 4.6 mph - N/A   Clear
2:53 AM 7.0 °F -10.4 °F 3.9 °F 87% 30.22 in 10.0 mi SSW 15.0 mph - N/A   Clear
3:53 AM 21.0 °F 7.6 °F 14.0 °F 74% 30.17 in 10.0 mi SW 15.0 mph - N/A   Overcast
4:53 AM 18.0 °F 4.2 °F 12.0 °F 78% 30.19 in 10.0 mi SSW 13.8 mph - N/A   Overcast
5:53 AM 24.1 °F 12.5 °F 15.1 °F 69% 30.19 in 10.0 mi SSW 12.7 mph - N/A   Overcast
6:53 AM 23.0 °F 11.7 °F 16.0 °F 74% 30.22 in 10.0 mi SW 11.5 mph - N/A   Overcast
7:53 AM 23.0 °F 9.2 °F 16.0 °F 74% 30.22 in 10.0 mi SSW 17.3 mph - N/A   Overcast
8:53 AM 23.0 °F 9.2 °F 16.0 °F 74% 30.23 in 6.0 mi SW 17.3 mph - N/A   Haze
9:53 AM 25.0 °F 14.2 °F 18.0 °F 75% 30.25 in 10.0 mi SSW 11.5 mph - N/A   Overcast
10:53 AM 28.9 °F 18.6 °F 21.0 °F 72% 30.25 in 10.0 mi SW 12.7 mph - N/A   Overcast
11:53 AM 30.0 °F 20.5 °F 21.0 °F 69% 30.27 in 10.0 mi SSW 11.5 mph - N/A   Overcast
12:53 PM 32.0 °F 21.6 °F 21.0 °F 64% 30.24 in 10.0 mi SSW 15.0 mph - N/A   Clear
1:53 PM 32.0 °F 21.6 °F 21.9 °F 66% 30.21 in 10.0 mi SSW 15.0 mph - N/A   Clear
2:53 PM 34.0 °F 23.0 °F 21.0 °F 59% 30.19 in 10.0 mi SSW 18.4 mph - N/A   Clear
3:53 PM 35.1 °F 23.8 °F 21.9 °F 59% 30.14 in 10.0 mi SSW 20.7 mph - N/A   Partly Cloudy
4:53 PM 35.1 °F 24.8 °F 21.9 °F 59% 30.15 in 10.0 mi SW 17.3 mph - N/A   Mostly Cloudy
5:53 PM 30.9 °F 20.7 °F 19.9 °F 64% 30.15 in 10.0 mi SW 13.8 mph - N/A   Partly Cloudy
6:53 PM 28.9 °F 20.4 °F 19.0 °F 67% 30.16 in 10.0 mi South 9.2 mph - N/A   Mostly Cloudy
7:53 PM 28.9 °F 19.8 °F 17.1 °F 61% 30.16 in 10.0 mi South 10.4 mph - N/A   Overcast
8:53 PM 28.0 °F 20.0 °F 16.0 °F 61% 30.14 in 10.0 mi South 8.1 mph - N/A   Mostly Cloudy
9:53 PM 30.0 °F 19.5 °F 18.0 °F 61% 30.11 in 10.0 mi SSW 13.8 mph - N/A   Overcast
10:53 PM 28.0 °F 20.0 °F 18.0 °F 66% 30.10 in 10.0 mi SSW 8.1 mph - N/A   Overcast
11:53 PM 30.0 °F 18.7 °F 19.0 °F 64% 30.08 in 10.0 mi SW 16.1 mph - N/A   Overcast